Location: Sternwarte ZA, Rosenfeld-Brittheim
(48.2889°N, 8.6789°E)
Time: 19:41:48
(UTC+02:00)

ISS - Pass Details

Date: 21 July 2019
Orbit: 409 x 418 km, 51.6° (Epoch: 20 July)

Event Time Altitude Azimuth Distance (km) Brightness Sun altitude
Rises 00:36:45 0° 281° (WNW) 2,352 0.4 -20.0°
Reaches altitude 10° 00:38:54 10° 288° (WNW) 1,488 -0.6 -20.1°
Maximum altitude 00:42:07 45° 3° (N) 575 -2.7 -20.2°
Enters shadow 00:45:17 10° 78° (ENE) 1,459 -1.0 -20.4°
